Garden City, KS

12:12 AM CDT on July 21, 2017 (GMT -0500)
Garden City Regional

Weather History for KGCK - November, 2012

Change the Weather History Date:

Thursday, November 1, 2012

  Actual Average Record
Temperature  
Mean Temperature 58 °F 49 °F  
Max Temperature 80 °F 63 °F 85 °F (1973)
Min Temperature 36 °F 35 °F 12 °F (1991)
Degree Days  
Heating Degree Days 7 16  
Month to date heating degree days 7 16  
Since 1 July heating degree days 438 406  
Cooling Degree Days 0 0  
Month to date cooling degree days 0 0  
Year to date cooling degree days 1643 1298  
Growing Degree Days 9 (Base 50)    
Moisture  
Dew Point 33 °F    
Average Humidity 47    
Maximum Humidity 76    
Minimum Humidity 17    
Precipitation  
Precipitation 0.00 in 0.02 in 0.71 in (1981)
Month to date precipitation 0.00 0.02  
Year to date precipitation 12.67 18.42  
Sea Level Pressure  
Sea Level Pressure 29.96 in    
Wind  
Wind Speed 8 mph (SSW)    
Max Wind Speed 17 mph    
Max Gust Speed 22 mph    
Visibility 10 miles    
Events      
T = Trace of Precipitation, MM = Missing Value Source: NWS Daily Summary

Daily Weather History Graph

Daily Weather History Graph

Search for Another Location

Airport or City:

Trip Planner

Search our weather history database for the weather conditions in past years. The results will help you decide how hot, cold, wet, or windy it might be!

Date:

Astronomy

Nov. 01, 2012 Rise Set
Actual Time 8:09 AM CDT 6:43 PM CDT
Civil Twilight 7:41 AM CDT 7:10 PM CDT
Nautical Twilight 7:10 AM CDT 7:41 PM CDT
Astronomical Twilight 6:39 AM CDT 8:12 PM CDT
Moon 8:44 PM CDT (11/1) 10:41 AM CDT (11/1)
Length of Visible Light 11h 28m
Length of Day
10h 34m
Waning Gibbous, 93% of the Moon is Illuminated
Nov 1
Waning Gibbous
Nov 6
Last Quarter
Nov 13
New
Nov 20
First Quarter
Nov 28
Full

Hourly Weather History & Observations

Time (CDT) Temp. Windchill Dew Point Humidity Pressure Visibility Wind Dir Wind Speed Gust Speed Precip Events Conditions
12:54 AM 52.0 °F - 35.1 °F 53% 30.00 in 10.0 mi SE 5.8 mph - N/A   Clear
1:54 AM 46.0 °F - 33.1 °F 61% 30.01 in 9.0 mi Calm Calm - N/A   Clear
2:54 AM 44.1 °F 39.5 °F 34.0 °F 68% 30.01 in 8.0 mi WNW 8.1 mph - N/A   Clear
3:54 AM 44.1 °F 39.5 °F 34.0 °F 68% 30.01 in 9.0 mi NW 8.1 mph - N/A   Clear
4:54 AM 41.0 °F 35.8 °F 33.8 °F 76% 30.06 in 10.0 mi NNW 8.1 mph - N/A   Clear
5:54 AM 43.0 °F 38.2 °F 33.1 °F 68% 30.01 in 10.0 mi NNW 8.1 mph - N/A   Clear
6:54 AM 41.0 °F 35.8 °F 32.0 °F 70% 30.03 in 10.0 mi NW 8.1 mph - N/A   Clear
7:54 AM 39.9 °F 34.5 °F 32.0 °F 73% 30.03 in 10.0 mi NW 8.1 mph - N/A   Clear
8:54 AM 41.0 °F 38.0 °F 30.9 °F 67% 30.05 in 8.0 mi WNW 4.6 mph - N/A   Clear
9:54 AM 51.8 °F - 33.8 °F 50% 30.07 in 8.0 mi WNW 4.6 mph - N/A   Clear
10:54 AM 61.0 °F - 34.0 °F 36% 30.02 in 10.0 mi WSW 4.6 mph - N/A   Clear
12:54 PM 71.6 °F - 33.8 °F 25% 30.03 in 10.0 mi South 9.2 mph - N/A   Clear
1:54 PM 75.9 °F - 30.9 °F 19% 29.94 in 10.0 mi South 6.9 mph - N/A   Clear
2:54 PM 79.0 °F - 30.0 °F 17% 29.89 in 10.0 mi South 9.2 mph - N/A   Clear
3:54 PM 77.0 °F - 30.0 °F 18% 29.88 in 10.0 mi SSW 13.8 mph - N/A   Clear
4:54 PM 77.0 °F - 30.9 °F 19% 29.88 in 10.0 mi South 12.7 mph - N/A   Clear
5:54 PM 75.2 °F - 30.2 °F 19% 29.92 in 10.0 mi South 10.4 mph - N/A   Clear
6:54 PM 64.0 °F - 33.1 °F 31% 29.89 in 10.0 mi SE 9.2 mph - N/A   Clear
7:54 PM 63.0 °F - 33.1 °F 33% 29.89 in 10.0 mi SE 11.5 mph - N/A   Clear
8:54 PM 60.1 °F - 33.1 °F 36% 29.89 in 10.0 mi SE 11.5 mph - N/A   Clear
9:54 PM 55.9 °F - 33.1 °F 42% 29.86 in 10.0 mi SE 11.5 mph - N/A   Clear
10:54 PM 57.9 °F - 33.1 °F 39% 29.84 in 10.0 mi SSE 13.8 mph - N/A   Clear
11:54 PM 55.9 °F - 33.1 °F 42% 29.88 in 10.0 mi SSE 10.4 mph - N/A   Clear